Погода в Колумбусе

США     39°57′45″N   82°59′47″W
темп.,
°C
ветер,
м/с
пор.,
м/с
влажн.,
%
обл.,
%
осадки,
мм/ч
давл.,
гПа
погр.,
м
21 октября, чт
чт2123:00+16ююз310637 0.0 1017342
02:00+15ююз3106870 0.0 1016315
05:00+14ююз3118028 0.0 1015356
08:00+14ююз4139144 0.0 1014443
11:00+18ююз51180100 0.1 1012840
14:00+18юз5118348 2.4 1010946
17:00+18з613570 1.3 10101612
20:00+14зсз5116181 1.3 10131107
22 октября, пт
пт2223:00+11з41068100 0.0 1014633
02:00+12зсз497098 0.0 1014735
05:00+12сз4774100 0.0 1015729
08:00+11сз3473100 0.0 1016632
11:00+10сз3455100 0.0 1018545
14:00+11сз2346100 0.0 1017583
17:00+11зсз1248100 0.0 1017524
20:00+10зюз1163100 0.2 1017409
23 октября, сб
сб2323:00+10зюз1370100 0.3 1017419
02:00+10ю117278 0.3 1016223
05:00+10зюз1478100 0.0 1016246
08:00+9юз268585 0.0 1017295
11:00+13з47545 0.0 1018873
14:00+16з47395 0.0 10161525
17:00+17з4844100 0.0 10161641
20:00+14зсз2465100 0.2 1017405
24 октября, вс
вс2423:00+13юв117699 0.5 1017217
02:00+12юв2482100 0.6 1016248
05:00+12ююв248381 0.3 1016179
08:00+13ю2690100 0.4 1015263
11:00+14ю3886100 0.1 1016396
14:00+14ю31096100 4.7 1012502
17:00+16юз31196100 5.6 1012824
20:00+16сз2299100 18.3 1012141
25 октября, пн
пн2523:00+18юз61591100 8.5 10111096
02:00+15сз1595100 9.1 1012296
05:00+14юв3697100 4.9 1010209
08:00+15ююз51495100 10.6 1010816
11:00+17юз51292100 1.6 1010988
14:00+19юз4986100 1.8 1009856
17:00+19зсз6966100 0.6 10081371
20:00+15зсз4976100 0.6 1011753